Regional Weather Roundup
Issued by NWS Cleveland, OH

Home | Current Version | Previous Version | Graphics & Text | Print | Product List | Glossary On
Versions: 1 2 3 4 5 6 7 8 9 10 11 12 13 14 15 16 17 18 19 20 21 22 23 24 25 26 27 28 29 30 31 32 33 34 35 36 37 38 39 40 41 42 43 44 45 46 47 48 49 50
145
ASUS41 KCLE 091500
RWRCLE
OHIO REGIONAL WEATHER ROUNDUP
NATIONAL WEATHER SERVICE WILMINGTON, OH
1000 AM EST TUE FEB 09 2016

NOTE: "FAIR" INDICATES FEW OR NO CLOUDS BELOW 12,000 FEET WITH NO
SIGNIFICANT WEATHER AND/OR OBSTRUCTIONS TO VISIBILITY.

OHZ001>008-015>018-024>027-034-035-043-044-091600-
   NORTHWEST OHIO

CITY           SKY/WX    TMP DP  RH WIND       PRES   REMARKS
DEFIANCE       CLOUDY    29  25  85 W6        29.64S WCI  23
FINDLAY        LGT SNOW  28  23  81 W16G25    29.63R WCI  16
TOLEDO EXPRESS LGT SNOW  29  27  92 W10       29.61S VSB 1   WCI  20
TOLEDO EXEC    LGT SNOW  29  26  89 SW15      29.61S VSB 1   WCI  18
LIMA           LGT SNOW  25  20  81 W21G29    29.65S WCI  11
$$

OHZ009>014-019>023-028>033-038-089-091600-
   NORTHEAST OHIO

CITY           SKY/WX    TMP DP  RH WIND       PRES   REMARKS
CLE-HOPKINS    CLOUDY    30  25  81 SW14      29.61S WCI  19
CLE-LAKEFRONT  CLOUDY    32  26  78 SW13      29.58S WCI  22
CUY CO. ARPT   CLOUDY    32  28  86 W12       29.58S WCI  23
LORAIN-ELYRIA  CLOUDY    30  24  78 W13       29.60S WCI  20
ASHTABULA      CLOUDY    32  28  85 W12       29.57R WCI  23
AKRON-CANTON   CLOUDY    29  24  82 W14       29.58S HAZE    WCI  18
WOOSTER        NOT AVBL
MANSFIELD      CLOUDY    27  24  89 W13       29.60R WCI  16
YOUNGSTOWN     FLURRIES  31  26  82 W8        29.56S WCI  23
$$

OHZ042-051>053-060>062-070>072-077>081-091600-
  SOUTHWEST OHIO

CITY           SKY/WX    TMP DP  RH WIND       PRES   REMARKS
CINC-COVINGTON LGT SNOW  22  17  81 W9        29.77R WCI  12
CINC-LUNKEN    LGT SNOW  22  17  81 SW12      29.80S WCI  10
HAMILTON       LGT SNOW  23  19  85 W14       29.78S FOG     WCI  11
DAYTON         NOT AVBL
WRIGHT-PAT AFB NOT AVBL
DAYTON GENERAL LGT SNOW  21  17  84 W9        29.72R FOG     WCI  11
WILMINGTON     LGT SNOW  20  17  88 W17       29.71R FOG     WCI   5
$$

OHZ036-037-039>041-045>050-054>059-063>069-073>076-082>088-091600-
  CENTRAL AND SOUTHEAST OHIO

CITY           SKY/WX    TMP DP  RH WIND       PRES   REMARKS
COLUMBUS       LGT SNOW  23  18  81 SW12      29.68S WCI  12
OSU AIRPORT    CLOUDY    24  21  88 SW12      29.67R WCI  13
BOLTON FIELD   CLOUDY    21  19  93 W12       29.69R FOG     WCI   9
RICKENBACK AFB NOT AVBL
NEWARK         LGT SNOW  24  19  81 MISG      29.66S
MARION         CLOUDY    26  20  77 W16       29.64S HAZE    WCI  14
LANCASTER      LGT SNOW  22  18  85 SW13G20   29.70R FOG     WCI  10
ZANESVILLE     LGT SNOW  25  19  78 W12G21    29.66S WCI  14
NEW PHILLY     CLOUDY    30  25  81 W12       29.62R WCI  20
$$




USA.gov is the U.S. government's official web portal to all federal, state and local government web resources and services.